This is the latest recevied weather packets stored in our database for station/object PY2UEP-1. If no packets are shown the sender has not sent any weather packets the latest 1 day(s).
| Time | Temp. | Humidity | Pressure | Rain* | Wind** | Luminosity | Snow |
|---|---|---|---|---|---|---|---|
| 1778043649 | 21.11° C | 80% | 1021.1 hPa | 0 mm | 1.34 m/s, 119° | - | - |
| 1778043348 | 21.11° C | 80% | 1021.1 hPa | 0 mm | 1.34 m/s, 122° | - | - |
| 1778043048 | 21.11° C | 80% | 1021.2 hPa | 0 mm | 1.34 m/s, 122° | - | - |
| 1778042749 | 21.11° C | 79% | 1021.2 hPa | 0 mm | 1.34 m/s, 123° | - | - |
| 1778042448 | 21.11° C | 80% | 1021.2 hPa | 0 mm | 1.34 m/s, 122° | - | - |
| 1778042148 | 21.11° C | 81% | 1021.5 hPa | 0 mm | 0.89 m/s, 125° | - | - |
| 1778041849 | 21.11° C | 81% | 1021.5 hPa | 0 mm | 0.89 m/s, 131° | - | - |
| 1778041548 | 21.11° C | 80% | 1021.5 hPa | 0 mm | 0.89 m/s, 126° | - | - |
| 1778041248 | 21.67° C | 79% | 1021.5 hPa | 0 mm | 0.89 m/s, 117° | - | - |
| 1778040949 | 21.67° C | 78% | 1021.5 hPa | 0 mm | 0.89 m/s, 120° | - | - |
| 1778040648 | 21.67° C | 78% | 1021.5 hPa | 0 mm | 0.89 m/s, 115° | - | - |
| 1778040348 | 21.67° C | 79% | 1021.5 hPa | 0 mm | 1.34 m/s, 118° | - | - |
| 1778040048 | 21.11° C | 79% | 1021.6 hPa | 0 mm | 1.34 m/s, 128° | - | - |
| 1778039748 | 21.67° C | 78% | 1021.7 hPa | 0 mm | 1.34 m/s, 129° | - | - |
| 1778039448 | 21.67° C | 78% | 1021.7 hPa | 0 mm | 1.34 m/s, 123° | - | - |
| 1778039148 | 21.67° C | 78% | 1021.7 hPa | 0 mm | 1.34 m/s, 118° | - | - |
| 1778038848 | 21.67° C | 78% | 1021.8 hPa | 0 mm | 0.89 m/s, 118° | - | - |
| 1778038548 | 21.67° C | 77% | 1021.8 hPa | 0 mm | 0.89 m/s, 123° | - | - |
| 1778038248 | 21.67° C | 78% | 1022 hPa | 0 mm | 1.34 m/s, 129° | - | - |
| 1778037948 | 21.67° C | 78% | 1022 hPa | 0 mm | 1.34 m/s, 135° | - | - |
| 1778037648 | 21.67° C | 77% | 1022 hPa | 0 mm | 1.34 m/s, 141° | - | - |
| 1778037348 | 21.67° C | 76% | 1021.9 hPa | 0 mm | 1.34 m/s, 135° | - | - |
| 1778037048 | 21.67° C | 76% | 1022 hPa | 0 mm | 1.34 m/s, 134° | - | - |
| 1778036748 | 22.22° C | 76% | 1021.9 hPa | 0 mm | 0.89 m/s, 129° | - | - |
| 1778036448 | 22.22° C | 74% | 1022 hPa | 0 mm | 1.34 m/s, 124° | - | - |
* Rain since midnight (hover to see other rain measurements)
** Current wind speed in m/s (hover to see current wind gust speed)